Time,TemperatureF,DewpointF,PressureIn,WindDirection,WindDirectionDegrees,WindSpeedMPH,WindSpeedGustMPH,Humidity,HourlyPrecipIn,Conditions,Clouds,dailyrainin,SoftwareType,DateUTC
2013-01-30 00:01:00,38.0,28.0,-100.00,SW,225,11.0,14.0,66,-99.99,,,-99.99,,2013-01-30 08:01:00,
2013-01-30 00:11:00,38.0,27.0,-100.00,SW,225,9.0,14.0,66,-99.99,,,-99.99,,2013-01-30 08:11:00,
2013-01-30 00:21:00,38.0,27.0,-100.00,SW,225,9.0,14.0,66,-99.99,,,-99.99,,2013-01-30 08:21:00,
2013-01-30 00:32:00,37.0,27.0,-100.00,SW,225,8.0,13.0,66,-99.99,,,-99.99,,2013-01-30 08:32:00,
2013-01-30 00:41:00,37.0,27.0,-100.00,SW,225,8.0,14.0,66,-99.99,,,-99.99,,2013-01-30 08:41:00,
2013-01-30 00:52:00,37.0,27.0,-100.00,SW,225,8.0,14.0,66,-99.99,,,-99.99,,2013-01-30 08:52:00,
2013-01-30 01:01:00,37.0,27.0,-100.00,SW,225,11.0,16.0,66,-99.99,,,-99.99,,2013-01-30 09:01:00,
2013-01-30 01:11:00,37.0,27.0,-100.00,SW,225,10.0,14.0,66,-99.99,,,-99.99,,2013-01-30 09:11:00,
2013-01-30 01:21:00,37.0,27.0,-100.00,SW,225,10.0,14.0,66,-99.99,,,-99.99,,2013-01-30 09:21:00,
2013-01-30 01:31:00,37.0,27.0,-100.00,SW,225,9.0,16.0,66,-99.99,,,-99.99,,2013-01-30 09:31:00,
2013-01-30 01:41:00,37.0,27.0,-100.00,SW,225,10.0,14.0,66,-99.99,,,-99.99,,2013-01-30 09:41:00,
2013-01-30 01:52:00,37.0,27.0,-100.00,SW,225,10.0,14.0,66,-99.99,,,-99.99,,2013-01-30 09:52:00,
2013-01-30 02:01:00,37.0,27.0,-100.00,SW,225,8.0,14.0,66,-99.99,,,-99.99,,2013-01-30 10:01:00,
2013-01-30 02:11:00,37.0,27.0,-100.00,SW,225,9.0,16.0,66,-99.99,,,-99.99,,2013-01-30 10:11:00,
2013-01-30 02:21:00,37.0,27.0,-100.00,SW,225,9.0,16.0,66,-99.99,,,-99.99,,2013-01-30 10:21:00,
2013-01-30 02:31:00,37.0,27.0,-100.00,SW,225,9.0,16.0,66,-99.99,,,-99.99,,2013-01-30 10:31:00,
2013-01-30 02:41:00,37.0,26.0,-100.00,SW,225,12.0,17.0,65,-99.99,,,-99.99,,2013-01-30 10:41:00,
2013-01-30 02:52:00,37.0,26.0,-100.00,SW,225,12.0,17.0,65,-99.99,,,-99.99,,2013-01-30 10:52:00,
2013-01-30 03:02:00,37.0,26.0,-100.00,SW,225,12.0,20.0,65,-99.99,,,-99.99,,2013-01-30 11:02:00,
2013-01-30 03:11:00,36.0,25.0,-100.00,SW,225,12.0,21.0,64,-99.99,,,-99.99,,2013-01-30 11:11:00,
2013-01-30 03:21:00,36.0,25.0,-100.00,SW,225,12.0,21.0,64,-99.99,,,-99.99,,2013-01-30 11:21:00,
2013-01-30 03:32:00,36.0,25.0,-100.00,SW,225,12.0,17.0,64,-99.99,,,-99.99,,2013-01-30 11:32:00,
2013-01-30 03:42:00,36.0,25.0,-100.00,SW,225,11.0,17.0,64,-99.99,,,-99.99,,2013-01-30 11:42:00,
2013-01-30 03:52:00,36.0,25.0,-100.00,SW,225,11.0,17.0,64,-99.99,,,-99.99,,2013-01-30 11:52:00,
2013-01-30 04:01:00,36.0,25.0,-100.00,SW,225,13.0,17.0,64,-99.99,,,-99.99,,2013-01-30 12:01:00,
2013-01-30 04:12:00,36.0,25.0,-100.00,SW,225,13.0,17.0,64,-99.99,,,-99.99,,2013-01-30 12:12:00,
2013-01-30 04:22:00,36.0,25.0,-100.00,SW,225,13.0,17.0,64,-99.99,,,-99.99,,2013-01-30 12:22:00,
2013-01-30 04:32:00,37.0,25.0,-100.00,SW,225,9.0,15.0,63,-99.99,,,-99.99,,2013-01-30 12:32:00,
2013-01-30 04:43:00,37.0,25.0,-100.00,SW,225,8.0,14.0,62,-99.99,,,-99.99,,2013-01-30 12:43:00,
2013-01-30 05:02:00,37.0,25.0,-100.00,SW,225,9.0,14.0,62,-99.99,,,-99.99,,2013-01-30 13:02:00,
2013-01-30 05:12:00,36.0,25.0,-100.00,South,180,8.0,12.0,62,-99.99,,,-99.99,,2013-01-30 13:12:00,
2013-01-30 05:22:00,36.0,25.0,-100.00,South,180,8.0,12.0,62,-99.99,,,-99.99,,2013-01-30 13:22:00,
2013-01-30 05:32:00,36.0,25.0,-100.00,SW,225,8.0,14.0,62,-99.99,,,-99.99,,2013-01-30 13:32:00,
2013-01-30 05:42:00,37.0,25.0,-100.00,SW,225,9.0,12.0,62,-99.99,,,-99.99,,2013-01-30 13:42:00,
2013-01-30 05:53:00,37.0,25.0,-100.00,SW,225,9.0,12.0,62,-99.99,,,-99.99,,2013-01-30 13:53:00,
2013-01-30 06:01:00,37.0,25.0,-100.00,South,180,6.0,9.0,63,-99.99,,,-99.99,,2013-01-30 14:01:00,
2013-01-30 06:11:00,37.0,25.0,-100.00,SW,225,7.0,8.0,63,-99.99,,,-99.99,,2013-01-30 14:11:00,
2013-01-30 06:22:00,37.0,25.0,-100.00,SW,225,7.0,8.0,63,-99.99,,,-99.99,,2013-01-30 14:22:00,
2013-01-30 06:32:00,37.0,26.0,-100.00,SW,225,8.0,11.0,63,-99.99,,,-99.99,,2013-01-30 14:32:00,
2013-01-30 06:42:00,37.0,26.0,-100.00,SW,225,9.0,13.0,63,-99.99,,,-99.99,,2013-01-30 14:42:00,
2013-01-30 06:53:00,37.0,26.0,-100.00,SW,225,9.0,13.0,63,-99.99,,,-99.99,,2013-01-30 14:53:00,
2013-01-30 07:02:00,38.0,27.0,-100.00,SW,225,11.0,14.0,64,-99.99,,,-99.99,,2013-01-30 15:02:00,
2013-01-30 07:11:00,38.0,27.0,-100.00,SW,225,7.0,12.0,65,-99.99,,,-99.99,,2013-01-30 15:11:00,
2013-01-30 07:22:00,38.0,27.0,-100.00,SW,225,7.0,12.0,65,-99.99,,,-99.99,,2013-01-30 15:22:00,
2013-01-30 07:32:00,38.0,28.0,-100.00,SW,225,6.0,10.0,65,-99.99,,,-99.99,,2013-01-30 15:32:00,
2013-01-30 07:42:00,39.0,28.0,-100.00,SW,225,6.0,9.0,66,-99.99,,,-99.99,,2013-01-30 15:42:00,
2013-01-30 07:53:00,39.0,28.0,-100.00,SW,225,6.0,9.0,66,-99.99,,,-99.99,,2013-01-30 15:53:00,
2013-01-30 08:02:00,39.0,29.0,-100.00,South,180,6.0,11.0,67,-99.99,,,-99.99,,2013-01-30 16:02:00,
2013-01-30 08:12:00,39.0,29.0,-100.00,SW,225,7.0,11.0,67,-99.99,,,-99.99,,2013-01-30 16:12:00,
2013-01-30 08:22:00,39.0,29.0,-100.00,SW,225,7.0,11.0,67,-99.99,,,-99.99,,2013-01-30 16:22:00,
2013-01-30 08:32:00,39.0,29.0,-100.00,SW,225,5.0,12.0,67,-99.99,,,-99.99,,2013-01-30 16:32:00,
2013-01-30 08:42:00,40.0,30.0,-100.00,SW,225,6.0,9.0,67,-99.99,,,-99.99,,2013-01-30 16:42:00,
2013-01-30 08:52:00,40.0,30.0,-100.00,SW,225,4.0,9.0,67,-99.99,,,-99.99,,2013-01-30 16:52:00,
2013-01-30 09:01:00,40.0,30.0,-100.00,SW,225,4.0,9.0,67,-99.99,,,-99.99,,2013-01-30 17:01:00,
2013-01-30 09:12:00,40.0,30.0,-100.00,SW,225,7.0,10.0,67,-99.99,,,-99.99,,2013-01-30 17:12:00,
2013-01-30 09:22:00,40.0,30.0,-100.00,SW,225,7.0,10.0,67,-99.99,,,-99.99,,2013-01-30 17:22:00,
2013-01-30 09:31:00,41.0,30.0,-100.00,SW,225,7.0,9.0,66,-99.99,,,-99.99,,2013-01-30 17:31:00,
2013-01-30 09:42:00,41.0,30.0,-100.00,SW,225,6.0,9.0,66,-99.99,,,-99.99,,2013-01-30 17:42:00,
2013-01-30 09:53:00,41.0,30.0,-100.00,SW,225,6.0,9.0,66,-99.99,,,-99.99,,2013-01-30 17:53:00,
2013-01-30 10:02:00,41.0,30.0,-100.00,SW,225,8.0,11.0,65,-99.99,,,-99.99,,2013-01-30 18:02:00,
2013-01-30 10:12:00,41.0,30.0,-100.00,SW,225,11.0,15.0,64,-99.99,,,-99.99,,2013-01-30 18:12:00,
2013-01-30 10:22:00,41.0,30.0,-100.00,SW,225,11.0,15.0,64,-99.99,,,-99.99,,2013-01-30 18:22:00,
2013-01-30 10:32:00,42.0,31.0,-100.00,SW,225,7.0,13.0,64,-99.99,,,-99.99,,2013-01-30 18:32:00,
2013-01-30 10:42:00,42.0,31.0,-100.00,SW,225,9.0,12.0,64,-99.99,,,-99.99,,2013-01-30 18:42:00,
2013-01-30 10:52:00,42.0,31.0,-100.00,SW,225,9.0,12.0,64,-99.99,,,-99.99,,2013-01-30 18:52:00,
2013-01-30 11:02:00,43.0,31.0,-100.00,SW,225,9.0,12.0,63,-99.99,,,-99.99,,2013-01-30 19:02:00,
2013-01-30 11:12:00,43.0,31.0,-100.00,SW,225,9.0,11.0,62,-99.99,,,-99.99,,2013-01-30 19:12:00,
2013-01-30 11:22:00,43.0,31.0,-100.00,SW,225,9.0,11.0,62,-99.99,,,-99.99,,2013-01-30 19:22:00,
2013-01-30 11:32:00,43.0,31.0,-100.00,SW,225,5.0,13.0,62,-99.99,,,-99.99,,2013-01-30 19:32:00,
2013-01-30 11:42:00,44.0,31.0,-100.00,SW,225,9.0,14.0,60,-99.99,,,-99.99,,2013-01-30 19:42:00,
2013-01-30 11:53:00,44.0,31.0,-100.00,SW,225,9.0,14.0,60,-99.99,,,-99.99,,2013-01-30 19:53:00,
2013-01-30 12:02:00,45.0,32.0,-100.00,SW,225,8.0,12.0,60,-99.99,,,-99.99,,2013-01-30 20:02:00,
2013-01-30 12:11:00,45.0,31.0,-100.00,South,180,4.0,11.0,58,-99.99,,,-99.99,,2013-01-30 20:11:00,
2013-01-30 12:21:00,45.0,31.0,-100.00,South,180,4.0,11.0,58,-99.99,,,-99.99,,2013-01-30 20:21:00,
2013-01-30 12:32:00,45.0,31.0,-100.00,South,180,4.0,11.0,58,-99.99,,,-99.99,,2013-01-30 20:32:00,
2013-01-30 12:42:00,46.0,32.0,-100.00,SW,225,7.0,13.0,57,-99.99,,,-99.99,,2013-01-30 20:42:00,
2013-01-30 12:53:00,46.0,32.0,-100.00,SW,225,9.0,12.0,56,-99.99,,,-99.99,,2013-01-30 20:53:00,
2013-01-30 13:03:00,46.0,32.0,-100.00,SW,225,9.0,12.0,56,-99.99,,,-99.99,,2013-01-30 21:03:00,
2013-01-30 13:11:00,46.0,32.0,-100.00,SW,225,7.0,11.0,56,-99.99,,,-99.99,,2013-01-30 21:11:00,
2013-01-30 13:22:00,46.0,32.0,-100.00,SW,225,7.0,11.0,56,-99.99,,,-99.99,,2013-01-30 21:22:00,
2013-01-30 13:32:00,46.0,32.0,-100.00,SW,225,7.0,11.0,56,-99.99,,,-99.99,,2013-01-30 21:32:00,
2013-01-30 13:42:00,47.0,32.0,-100.00,SW,225,4.0,9.0,56,-99.99,,,-99.99,,2013-01-30 21:42:00,
2013-01-30 13:52:00,47.0,32.0,-100.00,SW,225,4.0,9.0,56,-99.99,,,-99.99,,2013-01-30 21:52:00,
2013-01-30 14:02:00,49.0,33.0,-100.00,SW,225,4.0,9.0,54,-99.99,,,-99.99,,2013-01-30 22:02:00,
2013-01-30 14:11:00,48.0,33.0,-100.00,South,180,6.0,8.0,54,-99.99,,,-99.99,,2013-01-30 22:11:00,
2013-01-30 14:22:00,48.0,33.0,-100.00,South,180,6.0,8.0,54,-99.99,,,-99.99,,2013-01-30 22:22:00,
2013-01-30 14:32:00,48.0,32.0,-100.00,SE,135,6.0,9.0,53,-99.99,,,-99.99,,2013-01-30 22:32:00,
2013-01-30 14:42:00,48.0,32.0,-100.00,South,180,2.0,8.0,53,-99.99,,,-99.99,,2013-01-30 22:42:00,
2013-01-30 14:53:00,48.0,32.0,-100.00,South,180,2.0,8.0,53,-99.99,,,-99.99,,2013-01-30 22:53:00,
2013-01-30 15:02:00,48.0,32.0,-100.00,East,90,3.0,4.0,53,-99.99,,,-99.99,,2013-01-30 23:02:00,
2013-01-30 15:12:00,50.0,33.0,-100.00,NE,45,2.0,4.0,52,-99.99,,,-99.99,,2013-01-30 23:12:00,
2013-01-30 15:22:00,50.0,33.0,-100.00,NE,45,2.0,4.0,52,-99.99,,,-99.99,,2013-01-30 23:22:00,
2013-01-30 15:32:00,49.0,32.0,-100.00,NE,45,4.0,6.0,51,-99.99,,,-99.99,,2013-01-30 23:32:00,
2013-01-30 15:42:00,50.0,32.0,-100.00,West,270,3.0,9.0,50,-99.99,,,-99.99,,2013-01-30 23:42:00,
2013-01-30 15:52:00,50.0,32.0,-100.00,West,270,3.0,9.0,50,-99.99,,,-99.99,,2013-01-30 23:52:00,
2013-01-30 16:01:00,49.0,31.0,-100.00,West,270,3.0,9.0,51,-99.99,,,-99.99,,2013-01-31 00:01:00,
2013-01-30 16:11:00,49.0,31.0,-100.00,West,270,3.0,9.0,51,-99.99,,,-99.99,,2013-01-31 00:11:00,
2013-01-30 16:32:00,48.0,31.0,-100.00,SW,225,3.0,6.0,51,-99.99,,,-99.99,,2013-01-31 00:32:00,
2013-01-30 16:42:00,48.0,31.0,-100.00,South,180,6.0,9.0,51,-99.99,,,-99.99,,2013-01-31 00:42:00,
2013-01-30 16:53:00,48.0,31.0,-100.00,South,180,6.0,9.0,51,-99.99,,,-99.99,,2013-01-31 00:53:00,
2013-01-30 17:02:00,47.0,31.0,-100.00,South,180,7.0,11.0,52,-99.99,,,-99.99,,2013-01-31 01:02:00,
2013-01-30 17:11:00,47.0,30.0,-100.00,SW,225,8.0,12.0,53,-99.99,,,-99.99,,2013-01-31 01:11:00,
2013-01-30 17:21:00,47.0,30.0,-100.00,SW,225,8.0,12.0,53,-99.99,,,-99.99,,2013-01-31 01:21:00,
2013-01-30 17:31:00,46.0,31.0,-100.00,SW,225,9.0,12.0,54,-99.99,,,-99.99,,2013-01-31 01:31:00,
2013-01-30 17:41:00,46.0,30.0,-100.00,South,180,7.0,11.0,54,-99.99,,,-99.99,,2013-01-31 01:41:00,
2013-01-30 17:52:00,46.0,30.0,-100.00,South,180,7.0,11.0,54,-99.99,,,-99.99,,2013-01-31 01:52:00,
2013-01-30 18:01:00,46.0,30.0,-100.00,SW,225,6.0,10.0,55,-99.99,,,-99.99,,2013-01-31 02:01:00,
2013-01-30 18:11:00,45.0,30.0,-100.00,SW,225,6.0,9.0,56,-99.99,,,-99.99,,2013-01-31 02:11:00,
2013-01-30 18:21:00,45.0,30.0,-100.00,SW,225,6.0,9.0,56,-99.99,,,-99.99,,2013-01-31 02:21:00,
2013-01-30 18:32:00,45.0,30.0,-100.00,SW,225,8.0,12.0,57,-99.99,,,-99.99,,2013-01-31 02:32:00,
2013-01-30 18:41:00,45.0,30.0,-100.00,SW,225,8.0,12.0,57,-99.99,,,-99.99,,2013-01-31 02:41:00,
2013-01-30 19:02:00,43.0,30.0,-100.00,SW,225,7.0,13.0,59,-99.99,,,-99.99,,2013-01-31 03:02:00,
2013-01-30 19:11:00,42.0,30.0,-100.00,SW,225,11.0,14.0,61,-99.99,,,-99.99,,2013-01-31 03:11:00,
2013-01-30 19:21:00,42.0,30.0,-100.00,SW,225,11.0,14.0,61,-99.99,,,-99.99,,2013-01-31 03:21:00,
2013-01-30 19:32:00,41.0,29.0,-100.00,SW,225,11.0,17.0,62,-99.99,,,-99.99,,2013-01-31 03:32:00,
2013-01-30 19:41:00,41.0,29.0,-100.00,SW,225,7.0,15.0,63,-99.99,,,-99.99,,2013-01-31 03:41:00,
2013-01-30 19:52:00,41.0,29.0,-100.00,SW,225,7.0,15.0,63,-99.99,,,-99.99,,2013-01-31 03:52:00,
2013-01-30 20:02:00,41.0,29.0,-100.00,SW,225,6.0,11.0,64,-99.99,,,-99.99,,2013-01-31 04:02:00,
2013-01-30 20:11:00,40.0,30.0,-100.00,SW,225,9.0,14.0,66,-99.99,,,-99.99,,2013-01-31 04:11:00,
2013-01-30 20:22:00,40.0,30.0,-100.00,SW,225,10.0,13.0,67,-99.99,,,-99.99,,2013-01-31 04:22:00,
2013-01-30 20:31:00,40.0,30.0,-100.00,SW,225,10.0,13.0,67,-99.99,,,-99.99,,2013-01-31 04:31:00,
2013-01-30 20:41:00,40.0,30.0,-100.00,SW,225,8.0,12.0,67,-99.99,,,-99.99,,2013-01-31 04:41:00,
2013-01-30 20:52:00,40.0,30.0,-100.00,SW,225,8.0,12.0,67,-99.99,,,-99.99,,2013-01-31 04:52:00,
2013-01-30 21:03:00,40.0,30.0,-100.00,SW,225,9.0,12.0,67,-99.99,,,-99.99,,2013-01-31 05:03:00,
2013-01-30 21:11:00,40.0,30.0,-100.00,SW,225,9.0,14.0,67,-99.99,,,-99.99,,2013-01-31 05:11:00,
2013-01-30 21:22:00,39.0,30.0,-100.00,SW,225,11.0,14.0,68,-99.99,,,-99.99,,2013-01-31 05:22:00,
2013-01-30 21:31:00,39.0,30.0,-100.00,SW,225,11.0,14.0,68,-99.99,,,-99.99,,2013-01-31 05:31:00,
2013-01-30 21:41:00,39.0,29.0,-100.00,SW,225,11.0,14.0,68,-99.99,,,-99.99,,2013-01-31 05:41:00,
2013-01-30 21:52:00,39.0,29.0,-100.00,SW,225,11.0,14.0,68,-99.99,,,-99.99,,2013-01-31 05:52:00,
2013-01-30 22:01:00,39.0,29.0,-100.00,SW,225,11.0,14.0,68,-99.99,,,-99.99,,2013-01-31 06:01:00,